Location: Kvarnån
(66.4000°N, 22.2667°E)
Time: 20:59:53
(UTC+00:00)

Cosmos 972 Rocket - Pass Details

Date: 15 October 2024
Orbit: 713 x 1150 km, 75.8° (Epoch: 05 November)

Event Time Altitude Azimuth Distance (km) Brightness Sun altitude
Rises 17:34:44 0° 177° (S) 3,149 7.0 -15.9°
Reaches altitude 10° 17:37:15 10° 168° (SSE) 2,209 6.1 -16.1°
Maximum altitude 17:41:37 33° 105° (ESE) 1,192 4.4 -16.6°
Drops below altitude 10° 17:46:02 10° 42° (NE) 2,232 6.2 -17.0°
Sets 17:48:34 0° 34° (NNE) 3,187 7.0 -17.2°
